{"data":{"norad_id":67536,"epoch":"2026-05-25T02:40:16.029696Z","epoch_age_seconds":55677,"freshness":"FRESH","line1":"1 67536U 26014E   26145.11129664  .00017628  00000+0  54692-3 0  9990","line2":"2 67536  97.2883  32.1321 0001034  76.8525 283.2833 15.33454973 20497","mean_motion":15.33454973,"eccentricity":0.0001034,"inclination_deg":97.2883,"raan_deg":32.1321,"arg_perigee_deg":76.8525,"mean_anomaly_deg":283.2833,"bstar":0.00054692,"rev_number":2049,"period_min":93.90559392708,"perigee_km":464.80586854564,"apogee_km":466.22113546946,"semimajor_km":6843.6505020076,"source":"CELESTRAK","updated_at":"2026-05-25T13:38:21.607336Z"}}